Tri-Cities, TN

5:09 AM EDT on June 25, 2017 (GMT -0400)
Tri-Cities Regional Tennessee / Virginia

Weather History for KTRI - January, 2011

Change the Weather History Date:

Monday, January 10, 2011

  Actual Average Record
Temperature  
Mean Temperature 26 °F 35 °F  
Max Temperature 30 °F 45 °F 66 °F (1957)
Min Temperature 22 °F 25 °F -9 °F (1970)
Degree Days  
Heating Degree Days 39 30  
Month to date heating degree days 337 300  
Since 1 July heating degree days 2216 2029  
Cooling Degree Days 0 0  
Month to date cooling degree days 0 0  
Year to date cooling degree days 0 0  
Moisture  
Dew Point 19 °F    
Average Humidity 68    
Maximum Humidity 85    
Minimum Humidity 50    
Precipitation  
Precipitation 0.08 in 0.11 in 1.72 in (2008)
Month to date precipitation 0.67 1.05  
Year to date precipitation 0.67 1.05  
Snow  
Snow 1.40 in 0.10 in - ()
Month to date snowfall 5.0 1.4  
Since 1 July snowfall 12.2 4.1  
Snow Depth 1.00 in    
Sea Level Pressure  
Sea Level Pressure 30.21 in    
Wind  
Wind Speed 4 mph (ENE)    
Max Wind Speed 9 mph    
Max Gust Speed 14 mph    
Visibility 5 miles    
Events Snow    
T = Trace of Precipitation, MM = Missing Value Source: NWS Daily Summary

Daily Weather History Graph

Daily Weather History Graph

Search for Another Location

Airport or City:

Trip Planner

Search our weather history database for the weather conditions in past years. The results will help you decide how hot, cold, wet, or windy it might be!

Date:

Astronomy

Jan. 10, 2011 Rise Set
Actual Time 7:41 AM EST 5:32 PM EST
Civil Twilight 7:13 AM EST 6:01 PM EST
Nautical Twilight 6:41 AM EST 6:33 PM EST
Astronomical Twilight 6:10 AM EST 7:04 PM EST
Moon 10:48 AM EST (1/10) 11:45 PM EST (1/10)
Length of Visible Light 10h 47m
Length of Day
9h 51m
Waxing Crescent, 34% of the Moon is Illuminated
Jan 10
Waxing Crescent
Jan 12
First Quarter
Jan 19
Full
Jan 26
Last Quarter
Feb 2
New

Hourly Weather History & Observations

Time (EST) Temp. Windchill Dew Point Humidity Pressure Visibility Wind Dir Wind Speed Gust Speed Precip Events Conditions
12:53 AM 23.0 °F 18.4 °F 10.0 °F 58% 30.26 in 10.0 mi East 3.5 mph - N/A   Scattered Clouds
1:53 AM 24.1 °F 19.7 °F 10.0 °F 55% 30.26 in 10.0 mi ENE 3.5 mph - N/A   Overcast
2:53 AM 24.1 °F - 10.0 °F 55% 30.29 in 10.0 mi Calm Calm - N/A   Overcast
3:53 AM 25.0 °F 20.7 °F 8.1 °F 49% 30.25 in 10.0 mi ENE 3.5 mph - N/A   Overcast
4:53 AM 24.1 °F 17.0 °F 10.0 °F 55% 30.25 in 10.0 mi East 5.8 mph - N/A   Overcast
5:21 AM 24.8 °F - 10.4 °F 54% 30.23 in 6.0 mi Calm Calm - 0.00 in Snow Light Snow
5:30 AM 24.8 °F - 12.2 °F 59% 30.24 in 3.0 mi Calm Calm - 0.00 in Snow Light Snow
5:53 AM 21.9 °F - 15.1 °F 75% 30.28 in 3.0 mi Calm Calm - 0.00 in Snow Light Snow
6:50 AM 21.2 °F 14.9 °F 17.6 °F 86% 30.25 in 2.0 mi NE 4.6 mph - 0.02 in Snow Light Snow
6:53 AM 21.9 °F 14.5 °F 17.1 °F 82% 30.28 in 2.0 mi NE 5.8 mph - 0.02 in Snow Light Snow
7:15 AM 21.2 °F 14.9 °F 17.6 °F 86% 30.25 in 2.0 mi NE 4.6 mph - 0.01 in Snow Light Snow
7:34 AM 21.2 °F 13.6 °F 17.6 °F 86% 30.24 in 3.0 mi ENE 5.8 mph - 0.01 in Snow Light Snow
7:53 AM 23.0 °F 15.8 °F 16.0 °F 74% 30.27 in 7.0 mi ENE 5.8 mph - 0.01 in Snow Light Snow
8:32 AM 23.0 °F 17.0 °F 17.6 °F 80% 30.24 in 2.0 mi ENE 4.6 mph - 0.00 in Snow Light Snow
8:42 AM 23.0 °F 18.4 °F 17.6 °F 80% 30.25 in 1.0 mi ENE 3.5 mph - 0.00 in Snow Light Snow
8:53 AM 23.0 °F 18.4 °F 18.0 °F 81% 30.27 in 1.0 mi ENE 3.5 mph - 0.00 in Snow Light Snow
9:09 AM 23.0 °F - 17.6 °F 80% 30.25 in 1.0 mi Calm Calm - 0.00 in Snow Light Snow
9:53 AM 24.1 °F 19.7 °F 19.9 °F 84% 30.28 in 1.0 mi East 3.5 mph - 0.01 in Snow Light Snow
10:53 AM 26.1 °F 20.5 °F 19.9 °F 78% 30.27 in 1.0 mi NE 4.6 mph - 0.02 in   Overcast
11:53 AM 27.0 °F 21.6 °F 19.0 °F 72% 30.22 in 9.0 mi NE 4.6 mph - 0.00 in Snow Light Snow
12:53 PM 28.9 °F 21.1 °F 19.9 °F 69% 30.17 in 9.0 mi NE 8.1 mph - 0.00 in Snow Light Snow
1:53 PM 30.0 °F 26.5 °F 21.0 °F 69% 30.15 in 3.0 mi ENE 3.5 mph - 0.00 in Snow Light Snow
2:19 PM 30.2 °F 25.4 °F 21.2 °F 69% 30.14 in 5.0 mi East 4.6 mph - 0.00 in Snow Light Snow
2:51 PM 30.2 °F 22.6 °F 21.2 °F 69% 30.14 in 3.0 mi East 8.1 mph - 0.00 in Snow Light Snow
2:53 PM 30.0 °F 25.2 °F 21.9 °F 72% 30.15 in 3.0 mi ENE 4.6 mph - 0.00 in Snow Light Snow
3:05 PM 30.2 °F 25.4 °F 23.0 °F 75% 30.14 in 2.5 mi ENE 4.6 mph - 0.00 in Snow Light Snow
3:38 PM 28.4 °F 24.6 °F 24.8 °F 86% 30.14 in 2.5 mi ENE 3.5 mph - 0.00 in Snow Light Snow
3:53 PM 28.9 °F - 24.1 °F 82% 30.16 in 2.5 mi Calm Calm - 0.00 in Snow Light Snow
4:53 PM 30.0 °F 26.5 °F 25.0 °F 82% 30.17 in 2.5 mi ENE 3.5 mph - 0.00 in Snow Light Snow
5:27 PM 30.2 °F 26.7 °F 24.8 °F 80% 30.15 in 5.0 mi East 3.5 mph - 0.00 in   Overcast
5:53 PM 30.0 °F 26.5 °F 25.0 °F 82% 30.16 in 5.0 mi East 3.5 mph - 0.00 in Snow Light Snow
6:53 PM 30.0 °F 26.5 °F 25.0 °F 82% 30.16 in 10.0 mi East 3.5 mph - 0.00 in   Overcast
7:53 PM 30.0 °F 25.2 °F 26.1 °F 85% 30.17 in 2.5 mi ENE 4.6 mph - 0.01 in Snow Light Snow
8:39 PM 30.2 °F 26.7 °F 26.6 °F 86% 30.14 in 10.0 mi ENE 3.5 mph - 0.01 in   Overcast
8:53 PM 30.0 °F 25.2 °F 26.1 °F 85% 30.15 in 10.0 mi ENE 4.6 mph - 0.01 in   Overcast
9:53 PM 30.0 °F 25.2 °F 25.0 °F 82% 30.14 in 10.0 mi ENE 4.6 mph - 0.00 in   Overcast
10:53 PM 30.0 °F 26.5 °F 25.0 °F 82% 30.12 in 10.0 mi ENE 3.5 mph - N/A   Overcast
11:53 PM 30.0 °F - 25.0 °F 82% 30.13 in 10.0 mi Calm Calm - N/A   Overcast